This is the latest recevied weather packets stored in our database for station/object N5SRF. If no packets are shown the sender has not sent any weather packets the latest 10 day(s).
| Time | Temp. | Humidity | Pressure | Rain* | Wind** | Luminosity | Snow |
|---|---|---|---|---|---|---|---|
| 1778032001 | 25° C | 93% | 1011.4 hPa | 0 mm | - | 0 W/m² | - |
| 1778031696 | 25° C | 93% | 1011.4 hPa | 0 mm | - | 0 W/m² | - |
| 1778031395 | 25° C | 93% | 1011.3 hPa | 0 mm | - | 0 W/m² | - |
| 1778031091 | 25° C | 92% | 1011.2 hPa | 0 mm | - | 0 W/m² | - |
| 1778030787 | 25° C | 92% | 1011.3 hPa | 0 mm | - | 0 W/m² | - |
| 1778030484 | 25° C | 92% | 1011.1 hPa | 0 mm | - | 0 W/m² | - |
| 1778030182 | 25° C | 92% | 1011.1 hPa | 0 mm | - | 0 W/m² | - |
| 1778029878 | 25° C | 91% | 1010.8 hPa | 0 mm | - | 0 W/m² | - |
| 1778029571 | 25.56° C | 91% | 1010.9 hPa | 0 mm | - | 1 W/m² | - |
| 1778029263 | 25.56° C | 91% | 1010.9 hPa | 0 mm | - | 2 W/m² | - |
| 1778028960 | 25.56° C | 91% | 1010.7 hPa | 0 mm | - | 5 W/m² | - |
| 1778028656 | 25.56° C | 90% | 1010.8 hPa | 0 mm | - | 9 W/m² | - |
| 1778028353 | 25.56° C | 90% | 1010.9 hPa | 0 mm | - | 11 W/m² | - |
| 1778028050 | 26.11° C | 90% | 1010.8 hPa | 0 mm | - | 11 W/m² | - |
| 1778027746 | 26.11° C | 90% | 1010.9 hPa | 0 mm | - | 17 W/m² | - |
| 1778027442 | 26.11° C | 89% | 1011 hPa | 0 mm | - | 20 W/m² | - |
| 1778027137 | 26.67° C | 89% | 1010.7 hPa | 0 mm | - | 30 W/m² | - |
| 1778026834 | 26.67° C | 88% | 1010.8 hPa | 0 mm | - | 37 W/m² | - |
| 1778026531 | 26.67° C | 87% | 1010.7 hPa | 0 mm | - | 32 W/m² | - |
| 1778026228 | 26.67° C | 87% | 1010.7 hPa | 0 mm | - | 39 W/m² | - |
| 1778025926 | 26.67° C | 86% | 1010.6 hPa | 0 mm | - | 36 W/m² | - |
| 1778025623 | 26.67° C | 86% | 1010.7 hPa | 0 mm | - | 42 W/m² | - |
| 1778025320 | 27.22° C | 86% | 1010.8 hPa | 0 mm | - | 56 W/m² | - |
| 1778025016 | 27.22° C | 86% | 1010.8 hPa | 0 mm | - | 30 W/m² | - |
| 1778024714 | 27.22° C | 85% | 1010.7 hPa | 0 mm | - | 44 W/m² | - |
* Rain latest hour (hover to see other rain measurements)
** Current wind speed in m/s (hover to see current wind gust speed)